Flag for Italy Weather past 2 weeks in Venice, Italy

Now
73 °F

Passing clouds.


Feels Like: 76 °F
Forecast: 64 / 77 °F
Wind: 7 mph from East

Location: Venice / Tessera

Current Time: Aug 20, 2014 at 4:53:16 PM

Latest Report: Aug 20, 2014 at 4:20 PM


Visibility: N/A

Pressure: 29.89 "Hg

Humidity: 69%

Dew point: 63 °F

Location of VeniceLocation

Historic Weather in Venice — Graph

°F

Venice temperature yesterday

Maximum temperature yesterday: 73 °F (at 12:20 AM)
Minimum temperature yesterday: 63 °F (at 5:50 AM)
Average temperature yesterday: 68 °F

Past Weeks' High & Low Weather Summary

 TemperatureHumidityPressure
High84 °F (Aug 6, 2:20 PM)100% (Aug 14, 6:20 AM)30.07 "Hg (Aug 14, 6:20 AM)
Low55 °F (Aug 17, 6:20 AM)40% (Aug 6, 2:20 PM)29.62 "Hg (Aug 13, 3:50 PM)
Average73 °F74%29.89 "Hg
* Reported Aug 5 3:20 PM — Aug 20 3:50 PM, Venice, Weather by CustomWeather, © 2014

Note: Actual official high and low records may vary slightly from our data, if they occured in-between our weather recording intervals... More about our weather records

Advertising

Venice weather history for previous 24 hours

 ConditionsComfort  
Time TempWeatherWind HumidityBarometerVisibility
3:50 PM
Aug 20
73 °FPassing clouds.8 mph69%29.92 "HgN/A
3:20 PM72 °FPassing clouds.5 mph73%29.92 "HgN/A
2:50 PM72 °FScattered clouds.8 mph78%29.92 "HgN/A
2:20 PM72 °FScattered clouds.10 mph78%29.92 "HgN/A
1:50 PM72 °FPartly sunny.12 mph83%29.95 "HgN/A
1:20 PM68 °FScattered clouds.10 mph94%29.92 "HgN/A
12:50 PM66 °FBroken clouds.8 mph94%29.95 "HgN/A
12:20 PM66 °FLight rain. Broken clouds.10 mph88%29.95 "HgN/A
11:50 AM72 °FThunderstorms. Broken clouds.5 mph78%29.95 "HgN/A
11:20 AM72 °FPartly sunny.6 mph78%29.92 "HgN/A
10:50 AM68 °FPartly sunny.3 mph88%29.95 "HgN/A
10:20 AM68 °FLight rain. Partly sunny.5 mph83%29.92 "HgN/A
9:50 AM68 °FPartly sunny.3 mph83%29.92 "HgN/A
9:20 AM68 °FPartly sunny.3 mph88%29.92 "HgN/A
8:50 AM66 °FScattered clouds.5 mph88%29.92 "HgN/A
8:20 AM64 °FScattered clouds.3 mph94%29.92 "HgN/A
7:50 AM64 °FScattered clouds.2 mph94%29.92 "Hg6 mi
7:20 AM63 °FScattered clouds.3 mph94%29.92 "Hg5 mi
6:50 AM64 °FFog.5 mph94%29.92 "Hg5 mi
6:20 AM63 °FFog.2 mph94%29.92 "Hg3 mi
5:50 AM63 °FClear.1 mph100%29.92 "Hg4 mi
5:20 AM63 °FClear.5 mph100%29.92 "Hg4 mi
4:50 AM63 °FClear.5 mph100%29.92 "Hg4 mi
4:20 AM64 °FClear.2 mph94%29.92 "Hg4 mi
3:50 AM64 °FClear.2 mph94%29.92 "Hg4 mi
3:20 AM64 °FClear.1 mph94%29.92 "Hg4 mi
2:50 AM64 °FPassing clouds.3 mph94%29.92 "Hg4 mi
2:20 AM64 °FPassing clouds.2 mph94%29.92 "Hg5 mi
1:50 AM64 °FPassing clouds.7 mph94%29.92 "HgN/A
1:20 AM66 °FPassing clouds.3 mph88%29.92 "HgN/A
12:50 AM66 °FLight rain. Passing clouds.2 mph88%29.95 "HgN/A
12:20 AM66 °FLight rain. Passing clouds.2 mph94%29.92 "HgN/A
11:50 PM
Aug 19
66 °FPassing clouds.5 mph88%29.95 "HgN/A
11:20 PM66 °FPassing clouds.9 mph94%29.92 "Hg5 mi
10:50 PM66 °FPartly cloudy.7 mph94%29.92 "HgN/A
10:20 PM68 °FPartly cloudy.6 mph88%29.95 "HgN/A
9:50 PM68 °FPassing clouds.2 mph88%29.92 "HgN/A
9:20 PM68 °FPartly cloudy.5 mph88%29.92 "HgN/A
8:50 PM70 °FBroken clouds.5 mph83%29.92 "HgN/A
8:20 PM70 °FBroken clouds.5 mph78%29.92 "HgN/A
7:50 PM70 °FBroken clouds.5 mph83%29.89 "HgN/A
7:20 PM72 °FPartly sunny.6 mph78%29.89 "HgN/A
6:50 PM72 °FPartly sunny.7 mph78%29.89 "HgN/A
6:20 PM72 °FPartly sunny.6 mph78%29.92 "HgN/A
5:50 PM72 °FPartly sunny.7 mph73%29.89 "HgN/A
4:50 PM72 °FPartly sunny.7 mph69%29.92 "HgN/A
4:20 PM72 °FPartly sunny.10 mph69%29.92 "HgN/A
Weather by CustomWeather, © 2014

See weather overviewHow to use our weather pages